Helicity
26 25 18 16 10 -3 65 56 62 38 27 26 10 15 -8 -18 27 83 87 158 185 150 74 17 16 19 49 45 78 103 85 133 306 120 95 105 124 132 149 144 104 95 58 59
29 26 21 18 18 11 82 37 57 22 16 23 35 34 17 -6 10 34 51 52 89 157 50 15 11 7 54 46 79 123 110 150 151 82 73 122 97 127 156 170 183 92 69 34
42 34 30 34 38 3 77 46 40 25 1 12 21 57 50 74 42 30 66 19 16 59 32 12 4 -1 13 77 33 12 107 158 99 -2 -18 100 74 78 134 141 108 84 44 77
50 44 38 29 34 -2 42 35 46 47 7 20 42 20 44 46 62 42 36 21 49 25 30 15 27 42 30 45 61 49 16 49 72 128 87 85 83 125 158 175 117 84 60 98
43 46 33 21 23 -9 -4 13 35 39 29 28 14 38 57 47 41 13 49 29 70 19 13 28 27 39 28 12 61 38 40 17 24 74 70 102 99 55 55 74 108 145 122 120
38 53 46 33 30 24 21 12 29 40 11 24 20 21 30 62 60 40 68 24 23 24 28 36 65 51 13 6 12 46 43 15 40 64 39 67 87 59 56 80 54 63 97 76
56 64 60 53 38 40 28 31 37 22 25 13 24 23 21 41 89 40 64 45 14 6 41 21 3 5 17 23 66 33 40 40 49 46 55 65 48 54 45 49 65 85 122 133
73 59 66 69 52 39 62 40 51 19 20 5 17 53 23 28 10 57 20 22 30 58 31 28 33 32 40 24 33 64 60 38 39 41 52 49 40 23 38 48 34 86 114 129
109 71 67 61 52 43 70 39 45 40 16 1 2 31 36 16 17 13 40 29 53 29 20 33 32 32 34 35 32 56 70 44 36 55 42 49 28 28 46 42 34 23 87 89
109 75 60 40 45 41 70 63 61 64 35 -18 6 -15 31 25 11 32 41 62 49 22 34 39 35 41 35 52 56 47 43 50 43 50 35 38 22 27 48 41 25 69 89 67
117 91 52 32 38 42 78 79 74 76 89 24 -39 -17 3 41 33 26 43 45 22 39 43 36 28 43 34 39 37 48 41 50 42 31 37 38 16 44 35 31 69 69 55 34
110 84 50 32 34 43 75 99 81 99 113 123 8 12 8 6 88 49 32 37 42 26 36 33 21 34 40 31 39 33 42 20 22 20 23 5 24 28 36 35 55 50 45 47
97 63 54 36 43 30 76 108 88 118 104 52 41 2 15 12 12 20 51 54 65 62 48 20 14 17 20 40 31 29 32 13 28 35 21 8 30 41 47 51 49 49 52 46
98 59 45 37 44 41 47 111 118 161 168 103 88 -5 157 22 14 27 14 14 77 60 58 22 14 13 20 23 21 18 16 33 27 28 39 92 66 54 53 60 60 63 59 56
93 56 45 39 46 50 60 106 106 110 154 116 130 110 51 -24 40 51 67 7 10 18 48 32 15 10 24 23 27 38 16 3 19 25 28 34 50 53 59 65 55 56 58 59
86 61 45 46 43 52 139 130 93 125 107 95 139 77 100 77 42 53 87 70 61 50 31 24 16 11 19 22 29 16 13 27 19 21 57 80 71 75 65 55 56 52 50 45
72 44 42 40 33 109 167 165 155 127 74 130 71 94 79 82 49 74 89 81 74 52 33 14 16 20 28 22 74 52 62 79 92 66 68 88 98 75 82 75 71 63 67 81
66 41 35 32 54 89 103 109 80 130 130 97 26 85 109 38 41 52 55 80 69 47 57 48 37 40 44 28 38 34 43 96 114 112 116 111 112 101 93 87 84 86 77 81
62 39 69 139 119 113 135 65 99 81 103 35 19 109 143 -27 37 34 33 62 68 56 51 53 42 33 37 21 25 53 60 65 79 96 93 92 121 123 95 71 79 74 75 72
72 128 159 145 163 93 54 48 46 37 -10 -16 61 14 74 45 4 22 60 70 79 48 32 52 58 68 89 118 115 110 112 109 114 100 95 112 113 113 87 77 80 78 75 63
120 152 153 135 74 54 29 25 20 22 -45 -50 -30 -5 69 51 27 12 44 50 79 55 42 57 43 68 58 61 76 87 89 92 98 103 97 98 92 84 82 81 77 57 58 49
135 124 112 74 52 39 36 28 25 18 -34 -52 -39 -17 28 45 15 20 56 56 63 94 70 57 36 39 59 74 87 85 90 109 131 127 106 92 85 79 70 62 60 58 49 43
94 112 94 80 65 82 49 36 24 14 -17 -40 -40 36 23 9 12 45 19 29 69 54 32 43 42 48 63 66 69 76 70 69 71 85 87 88 80 74 65 60 58 54 50 52
172 147 138 171 133 74 50 16 -6 -46 -50 -27 -20 56 10 9 21 31 43 77 61 29 25 28 40 61 70 59 49 23 12 8 6 10 13 21 26 25 20 27 34 42 48 52
158 126 130 147 91 81 48 -11 -40 -60 -57 -35 6 15 2 20 26 47 30 41 32 20 27 20 11 66 78 60 40 8 -11 -22 -29 -22 -17 -12 -13 -10 -12 -8 -6 -1 9 24
144 107 124 100 105 68 74 -4 -54 -64 -35 -24 -66 -12 5 24 37 40 47 53 41 40 17 8 23 52 42 38 26 23 19 14 6 -3 -6 -4 2 -3 -6 7 9 12 3 9
165 88 46 76 72 68 55 11 -53 -29 -44 -34 -10 10 29 31 44 49 57 69 47 28 7 -11 15 60 50 39 25 22 23 25 26 14 1 -8 -7 11 17 27 27 29 25 19
Wind_Speed
82 84 84 85 90 88 67 48 45 45 40 45 39 38 42 38 28 24 24 23 18 13 16 9 26 20 29 28 34 31 33 36 39 50 46 55 40 52 50 47 46 37 45 58
78 81 84 85 87 86 63 55 41 40 46 41 43 38 41 37 36 29 28 27 11 17 24 21 15 13 16 16 31 28 40 38 57 41 35 52 58 48 41 32 35 39 55 56
77 79 84 85 85 83 56 54 51 39 45 42 43 38 40 39 37 34 34 27 35 28 26 25 18 17 18 14 19 31 34 42 48 60 59 56 67 65 58 50 52 50 61 48
78 80 83 86 86 80 54 58 51 43 35 40 50 45 43 40 35 37 38 36 38 36 29 25 24 23 20 16 14 18 28 22 19 24 32 49 62 35 46 47 37 41 48 4
78 80 83 82 82 75 64 55 52 42 31 40 44 47 43 39 38 36 39 38 38 36 31 29 30 30 24 23 22 21 23 26 14 15 19 25 40 54 57 60 50 51 36 28
74 77 77 78 78 73 60 56 45 42 43 49 43 43 44 44 45 37 39 41 39 36 32 34 35 33 31 29 26 24 25 32 28 28 22 17 31 48 15 27 8 38 26 19
69 73 73 72 70 69 54 53 43 43 37 49 45 47 48 46 46 45 46 42 37 35 40 37 33 31 27 28 28 25 23 21 25 26 23 32 32 30 28 17 30 30 21 9
64 69 69 68 64 64 55 47 48 45 39 50 47 49 46 45 41 41 38 35 36 39 38 33 32 31 32 32 30 29 27 22 21 21 24 23 26 26 12 11 12 16 10 12
61 65 67 63 60 63 56 43 47 46 44 33 50 52 47 43 43 40 38 39 39 35 33 32 31 29 31 30 29 31 30 26 24 23 25 28 22 20 19 18 20 14 8 17
58 62 63 59 59 61 51 39 43 46 50 46 54 52 47 42 41 43 42 40 36 34 32 32 31 32 32 31 30 28 26 26 23 26 26 26 23 20 19 20 22 12 11 17
55 58 56 55 55 56 47 44 45 45 44 63 45 44 49 51 46 44 42 40 35 36 32 32 33 33 32 31 31 30 27 25 25 26 26 29 23 21 23 22 17 17 20 23
52 54 52 51 55 52 46 47 45 45 42 55 74 72 70 70 68 57 40 37 39 33 34 33 34 34 34 33 30 30 29 28 27 28 29 25 24 20 19 21 21 29 28 24
46 49 47 48 52 50 45 45 46 48 48 69 47 53 44 47 55 46 36 40 37 30 35 36 36 37 34 33 32 34 31 31 31 29 27 19 20 21 24 26 28 30 29 28
45 45 47 49 48 45 39 40 39 38 44 49 48 52 62 55 55 53 67 56 40 42 42 37 37 37 32 33 36 38 36 32 33 33 27 20 25 25 28 26 29 32 32 33
43 45 47 50 48 42 42 38 34 23 28 46 66 70 48 45 49 61 64 65 62 46 40 37 38 37 37 36 36 38 32 35 35 34 31 30 25 25 28 29 32 33 35 36
44 44 44 44 46 44 45 43 39 49 39 51 52 49 51 49 46 46 37 46 43 39 37 40 41 39 35 34 33 33 33 27 26 31 29 26 22 27 33 34 37 39 40 39
46 49 48 45 44 36 36 37 38 40 46 41 47 41 38 42 31 28 35 38 38 38 41 41 42 41 33 37 41 36 35 28 25 27 28 34 32 34 35 35 39 41 42 41
48 48 48 45 39 31 35 40 43 34 30 29 37 37 37 32 32 29 29 31 39 40 42 39 40 40 38 38 37 40 34 27 29 31 33 31 33 37 36 40 44 46 45 44
49 52 49 48 47 39 41 37 34 31 31 35 30 36 35 32 35 37 28 28 30 38 42 41 38 37 38 42 38 34 35 36 33 35 38 37 34 35 41 44 46 47 49 49
51 50 50 58 48 28 45 33 37 38 34 30 33 36 38 40 36 36 36 29 39 42 43 34 39 48 47 42 40 37 37 37 39 42 42 42 41 42 44 45 45 46 49 53
53 56 50 47 40 33 34 34 36 37 36 34 37 37 43 40 44 41 39 35 33 43 38 34 39 41 39 34 37 37 38 38 39 38 39 41 44 47 49 48 48 50 53 56
49 41 42 42 41 36 28 29 32 34 43 44 46 50 46 42 42 39 38 34 31 36 27 36 38 32 27 28 31 35 39 40 39 40 42 44 44 45 45 46 48 51 53 54
46 46 44 47 44 47 34 30 31 38 49 49 56 56 46 40 42 44 34 34 37 27 35 40 37 30 26 27 30 34 36 36 37 38 39 39 41 41 41 44 46 49 50 50
51 49 54 46 47 40 34 33 43 54 54 57 56 53 42 39 38 38 34 31 28 33 36 38 35 24 24 23 24 26 28 31 32 32 32 33 34 36 37 40 43 45 47 49
45 42 49 37 36 36 30 50 58 56 57 56 52 44 41 39 37 37 32 32 38 37 36 40 41 24 16 16 17 23 28 32 31 29 30 32 36 39 41 41 44 44 45 46
39 36 39 34 41 43 31 56 58 55 54 51 43 41 40 39 38 35 35 35 35 36 39 41 38 24 12 9 14 20 26 31 33 33 35 37 40 43 44 44 47 46 46 47
37 39 35 36 37 34 29 47 56 52 51 46 42 40 36 41 37 36 34 34 38 43 44 45 40 20 12 8 14 19 25 30 34 38 40 42 43 45 48 50 50 48 47 46
Wind_Direction
14 14 13 13 12 12 23 28 29 25 30 29 40 41 329 320 273 105 113 108 132 265 274 211 158 160 139 138 137 199 210 208 193 211 228 217 228 228 236 250 261 283 277 270
15 15 15 15 15 14 21 24 30 32 18 31 23 20 348 320 302 279 281 287 213 269 298 205 215 224 166 159 148 182 182 203 198 221 232 227 234 239 245 256 272 274 263 264
15 15 15 16 15 14 27 25 23 30 22 30 17 23 346 316 305 287 286 307 323 299 322 332 269 247 296 188 171 164 179 190 205 203 212 219 216 218 228 243 251 263 254 275
15 16 15 15 15 15 29 24 25 26 29 21 343 2 324 315 308 309 311 321 319 313 286 306 303 287 227 210 216 214 195 205 235 243 238 227 223 235 241 249 263 274 260 339
14 16 16 17 17 17 26 24 21 26 25 4 353 344 337 308 299 296 302 303 295 317 324 315 299 310 289 268 233 221 221 213 238 242 240 226 219 217 224 233 252 249 270 295
15 17 17 19 19 21 26 23 30 24 10 343 347 344 339 292 288 291 282 296 292 306 292 260 244 246 278 298 287 260 232 214 233 229 245 250 245 230 259 266 278 261 287 332
17 18 19 20 20 20 24 24 28 24 21 342 329 322 316 289 276 279 277 288 300 294 279 261 249 257 309 316 314 292 283 282 260 248 265 258 267 271 270 275 280 280 306 348
17 17 18 19 21 17 19 24 25 19 14 331 312 304 308 295 292 285 290 301 294 273 283 290 290 294 305 320 301 294 300 312 309 300 289 304 297 305 326 331 318 297 316 328
17 17 17 19 20 16 19 25 16 7 360 4 313 299 308 302 298 290 288 285 283 292 282 279 295 298 308 314 313 281 285 309 309 301 301 294 327 324 319 327 324 327 324 305
20 17 17 18 19 14 18 24 15 5 349 328 313 296 292 298 299 288 289 293 285 301 287 287 290 286 289 297 302 309 313 302 308 296 301 313 318 312 310 322 336 7 2 316
21 20 20 19 17 15 21 16 8 360 349 296 310 311 294 286 289 285 290 288 295 287 292 290 289 291 295 298 298 291 294 298 296 299 297 294 298 306 306 318 313 325 318 315
23 21 21 19 14 15 18 11 5 356 341 317 287 272 263 253 240 267 287 286 286 295 289 292 292 291 295 297 296 292 289 293 293 292 292 303 302 318 320 319 320 293 305 335
29 25 22 18 14 12 13 9 8 1 348 318 310 293 292 283 259 265 277 277 285 295 295 292 292 292 306 294 293 285 289 289 287 291 295 317 319 322 312 305 306 309 313 311
28 25 20 16 12 10 11 8 8 7 356 337 312 294 284 278 270 258 218 239 271 285 287 292 292 296 313 299 290 288 284 290 285 283 299 322 308 318 315 322 317 310 307 303
28 22 17 14 10 9 8 5 13 20 11 340 305 281 275 275 271 251 244 236 243 278 283 287 290 294 299 297 297 287 292 286 287 289 299 302 314 320 326 326 323 321 315 309
22 19 16 14 10 9 11 14 22 17 16 340 326 301 277 275 266 260 249 251 260 270 282 284 285 285 296 299 295 295 299 314 322 303 317 330 337 328 323 322 317 311 309 310
18 12 9 8 7 13 15 18 13 10 2 359 318 294 288 282 275 266 251 254 264 272 278 281 282 288 302 296 289 299 301 321 326 327 324 309 313 315 321 321 316 314 309 304
13 8 4 6 18 31 21 21 14 19 32 35 331 306 302 285 274 266 261 260 263 271 275 284 286 290 290 298 302 297 313 325 322 322 323 326 322 316 320 318 313 308 306 304
10 10 18 27 28 22 14 19 34 55 52 17 356 321 306 292 279 261 261 268 270 275 276 283 289 289 289 293 303 312 316 313 317 319 322 325 327 325 317 313 312 306 302 299
16 22 23 16 23 30 4 47 41 27 341 304 291 290 285 281 276 262 261 272 266 268 271 289 289 284 290 300 303 309 312 315 314 314 316 317 317 318 317 314 315 312 303 297
18 14 18 16 24 42 31 38 33 12 344 310 298 291 286 273 256 268 261 270 272 266 278 289 297 304 306 306 308 313 317 319 321 323 323 320 316 314 313 310 309 309 303 295
11 11 14 23 32 41 35 36 30 19 328 308 304 294 276 262 252 261 259 275 278 276 293 290 302 327 334 332 326 324 320 319 324 324 317 316 316 315 316 314 310 309 305 298
15 15 19 18 20 15 18 17 8 359 316 296 296 291 278 265 260 256 277 273 272 297 290 296 311 332 342 340 335 331 331 336 333 328 325 317 313 316 319 319 317 314 311 306
4 7 1 10 10 12 13 350 328 292 298 289 289 283 270 268 266 261 277 281 297 294 297 305 323 337 338 355 7 15 14 9 1 350 343 337 334 334 334 332 327 320 316 311
0 6 359 9 10 4 3 312 291 282 282 286 281 268 261 267 268 259 269 275 274 286 299 286 300 344 356 13 15 30 37 31 355 332 321 320 328 334 332 334 329 324 321 319
358 358 354 358 355 352 359 307 286 286 286 281 268 268 259 259 265 272 274 277 280 276 278 290 316 338 336 334 2 17 24 15 356 327 324 326 330 332 341 341 331 323 318 316
352 350 349 345 345 346 353 312 285 297 287 273 273 266 265 267 267 267 273 277 276 274 280 284 295 311 294 326 349 1 13 16 1 345 324 321 318 330 326 327 321 319 321 322